Home > Time Zones > World Clock > Weather > Fiji > Nadi > Past weeks

Flag for Fiji Weather past 2 weeks in Nadi, Fiji

Now
68 °F

Passing clouds.


Feels Like: 68 °F
Forecast: 73 / 83 °F
Wind: 5 mph from Northeast

Location: Nandi

Current Time: Aug 29, 2014 at 1:53:54 AM

Latest Report: Aug 29, 2014 at 1:00 AM


Visibility: N/A

Pressure: 30.01 "Hg

Humidity: 83%

Dew point: 63 °F

Location of NadiLocation

Historic Weather in Nadi — Graph

°F

Nadi temperature yesterday

Maximum temperature yesterday: 81 °F (at 10:00 AM)
Minimum temperature yesterday: 64 °F (at 7:00 AM)
Average temperature yesterday: 73 °F

Past Weeks' High & Low Weather Summary

 TemperatureHumidityPressure
High88 °F (Aug 22, 1:00 PM)100% (Aug 14, 5:00 AM)30.07 "Hg (Aug 14, 5:00 AM)
Low63 °F (Aug 23, 6:00 AM)43% (Aug 23, 1:00 PM)29.89 "Hg (Aug 16, 3:00 PM)
Average74 °F72%29.99 "Hg
* Reported Midnight between Aug 13 and Aug 14 — Midnight between Aug 28 and Aug 29, Nadi, Weather by CustomWeather, © 2014

Note: Actual official high and low records may vary slightly from our data, if they occured in-between our weather recording intervals... More about our weather records

Advertising

Nadi weather history for previous 24 hours

 ConditionsComfort  
Time TempWeatherWind HumidityBarometerVisibility
12:00 AM
Aug 29
70 °FPassing clouds.3 mph78%30.01 "HgN/A
11:00 PM
Aug 28
70 °FPassing clouds.3 mph73%30.01 "HgN/A
10:00 PM72 °FPassing clouds.7 mph73%30.01 "HgN/A
9:00 PM72 °FPassing clouds.7 mph78%30.01 "HgN/A
8:00 PM73 °FPassing clouds.No wind74%29.98 "HgN/A
7:00 PM75 °FPassing clouds.5 mph74%29.98 "HgN/A
6:00 PM77 °FScattered clouds.8 mph69%29.95 "HgN/A
5:00 PM79 °FScattered clouds.10 mph65%29.95 "HgN/A
4:00 PM79 °FScattered clouds.13 mph61%29.95 "HgN/A
3:00 PM79 °FScattered clouds.12 mph61%29.95 "HgN/A
2:00 PM79 °FPartly sunny.13 mph58%29.95 "HgN/A
1:00 PM81 °FScattered clouds.15 mph54%29.98 "HgN/A
11:00 AM81 °FScattered clouds.5 mph51%30.04 "HgN/A
10:00 AM81 °FScattered clouds.9 mph48%30.04 "HgN/A
9:00 AM75 °FScattered clouds.7 mph61%30.04 "HgN/A
8:00 AM72 °FScattered clouds.3 mph73%30.04 "HgN/A
7:00 AM64 °FBroken clouds.No wind88%30.01 "HgN/A
6:00 AM66 °FPassing clouds.3 mph83%30.01 "HgN/A
5:00 AM66 °FPassing clouds.5 mph83%30.01 "HgN/A
4:00 AM66 °FPassing clouds.5 mph88%30.01 "HgN/A
3:00 AM66 °FPassing clouds.3 mph83%30.01 "HgN/A
2:00 AM66 °FPassing clouds.3 mph83%30.01 "HgN/A
1:00 AM66 °FPassing clouds.3 mph88%30.04 "HgN/A
Weather by CustomWeather, © 2014

See weather overviewHow to use our weather pages